Tappahannock, VA

5:24 AM EST on February 25, 2018 (GMT -0500)
Tappahannock

Weather History for KXSA - November, 2012

Change the Weather History Date:

Friday, November 9, 2012

  Actual Average (KOFP) Record (KOFP)
Temperature  
Mean Temperature 46 °F -  
Max Temperature 59 °F 61 °F 77 °F (1986)
Min Temperature 32 °F 37 °F 18 °F (1959)
Degree Days  
Heating Degree Days 20    
Moisture  
Dew Point 35 °F    
Average Humidity 71    
Maximum Humidity 100    
Minimum Humidity 41    
Precipitation  
Precipitation 0.00 in - - ()
Sea Level Pressure  
Sea Level Pressure 30.18 in    
Wind  
Wind Speed 3 mph (WNW)    
Max Wind Speed 10 mph    
Max Gust Speed 16 mph    
Visibility 10 miles    
Events      
Averages and records for this station are not official NWS values.
T = Trace of Precipitation, MM = Missing Value Source: NWS Daily Summary

Daily Weather History Graph

Daily Weather History Graph

Search for Another Location

Airport or City:

Trip Planner

Search our weather history database for the weather conditions in past years. The results will help you decide how hot, cold, wet, or windy it might be!

Date:

Astronomy

Nov. 09, 2012 Rise Set
Actual Time 6:42 AM EST 5:00 PM EST
Civil Twilight 6:14 AM EST 5:28 PM EST
Nautical Twilight 5:42 AM EST 5:59 PM EST
Astronomical Twilight 5:11 AM EST 6:30 PM EST
Moon 1:43 AM EST (11/9) 2:08 PM EST (11/9)
Length of Visible Light 11h 13m
Length of Day
10h 18m
Waning Crescent, 23% of the Moon is Illuminated
Nov 9
Waning Crescent
Nov 13
New
Nov 20
First Quarter
Nov 28
Full
Dec 6
Last Quarter

Hourly Weather History & Observations

Time (EST) Temp. Windchill Dew Point Humidity Pressure Visibility Wind Dir Wind Speed Gust Speed Precip Events Conditions
12:15 AM 43.0 °F 40.3 °F 30.2 °F 61% 30.07 in 10.0 mi WNW 4.6 mph - N/A   Clear
12:35 AM 43.0 °F 41.3 °F 30.6 °F 62% 30.07 in 10.0 mi WNW 3.5 mph - N/A   Clear
12:55 AM 42.8 °F 41.1 °F 30.7 °F 62% 30.08 in 10.0 mi WNW 3.5 mph - N/A   Clear
1:15 AM 41.9 °F 38.2 °F 30.7 °F 65% 30.08 in 10.0 mi WNW 5.8 mph - N/A   Clear
1:35 AM 41.9 °F 40.0 °F 31.1 °F 66% 30.08 in 10.0 mi WNW 3.5 mph - N/A   Clear
1:55 AM 42.3 °F 39.4 °F 31.5 °F 66% 30.09 in 10.0 mi WNW 4.6 mph - N/A   Clear
2:15 AM 42.3 °F 40.5 °F 31.6 °F 66% 30.09 in 10.0 mi WNW 3.5 mph - N/A   Clear
2:35 AM 41.4 °F 39.4 °F 31.6 °F 68% 30.10 in 10.0 mi NW 3.5 mph - N/A   Clear
2:55 AM 41.9 °F 39.0 °F 31.8 °F 67% 30.10 in 10.0 mi NW 4.6 mph - N/A   Clear
3:15 AM 41.2 °F 39.2 °F 31.6 °F 69% 30.11 in 10.0 mi NW 3.5 mph - N/A   Clear
3:35 AM 40.3 °F 38.2 °F 31.6 °F 71% 30.11 in 10.0 mi WNW 3.5 mph - N/A   Clear
3:55 AM 37.8 °F - 31.5 °F 78% 30.11 in 10.0 mi Calm Calm - N/A   Clear
4:15 AM 37.8 °F 35.3 °F 31.6 °F 79% 30.12 in 10.0 mi WNW 3.5 mph - N/A   Clear
4:35 AM 36.0 °F 33.3 °F 31.3 °F 83% 30.12 in 10.0 mi WNW 3.5 mph - N/A   Clear
4:55 AM 37.0 °F - 31.5 °F 80% 30.13 in 10.0 mi Calm Calm - N/A   Clear
5:15 AM 32.5 °F - 30.9 °F 94% 30.14 in 10.0 mi Calm Calm - N/A   Clear
5:35 AM 32.0 °F - 31.6 °F 99% 30.15 in 10.0 mi Calm Calm - N/A   Clear
5:55 AM 32.7 °F - 32.0 °F 97% 30.15 in 10.0 mi Calm Calm - N/A   Clear
6:15 AM 32.0 °F 28.7 °F 32.0 °F 100% 30.16 in 10.0 mi West 3.5 mph - N/A   Clear
6:35 AM 32.7 °F 29.6 °F 31.8 °F 96% 30.16 in 10.0 mi West 3.5 mph - N/A   Clear
6:55 AM 32.7 °F 28.3 °F 31.8 °F 96% 30.18 in 10.0 mi West 4.6 mph - N/A   Clear
7:15 AM 36.0 °F 33.3 °F 32.0 °F 86% 30.18 in 10.0 mi West 3.5 mph - N/A   Clear
7:35 AM 37.9 °F - 32.9 °F 82% 30.19 in 10.0 mi Calm Calm - N/A   Clear
7:55 AM 40.1 °F 38.0 °F 33.1 °F 76% 30.20 in 10.0 mi West 3.5 mph - N/A   Clear
8:15 AM 41.9 °F - 33.1 °F 71% 30.21 in 10.0 mi Calm Calm - N/A   Clear
8:35 AM 43.7 °F 41.1 °F 33.8 °F 68% 30.21 in 10.0 mi WNW 4.6 mph - N/A   Clear
8:55 AM 45.1 °F 43.7 °F 34.2 °F 65% 30.21 in 10.0 mi NW 3.5 mph - N/A   Clear
9:15 AM 47.3 °F - 34.7 °F 62% 30.21 in 10.0 mi NNW 8.1 mph - N/A   Clear
9:35 AM 48.6 °F - 35.1 °F 60% 30.21 in 10.0 mi NW 4.6 mph - N/A   Clear
9:55 AM 50.2 °F - 35.1 °F 56% 30.22 in 10.0 mi NNW 10.4 mph 16.1 mph N/A   Clear
10:15 AM 50.9 °F - 35.1 °F 55% 30.23 in 10.0 mi NW 9.2 mph - N/A   Clear
10:35 AM 51.8 °F - 34.9 °F 53% 30.23 in 10.0 mi NW 9.2 mph 16.1 mph N/A   Clear
10:55 AM 52.0 °F - 34.9 °F 52% 30.23 in 10.0 mi NW 6.9 mph 16.1 mph N/A   Clear
11:15 AM 53.1 °F - 35.1 °F 50% 30.22 in 10.0 mi NNW 9.2 mph 16.1 mph N/A   Clear
11:35 AM 53.8 °F - 35.4 °F 50% 30.21 in 10.0 mi WNW 5.8 mph 16.1 mph N/A   Clear
11:55 AM 54.9 °F - 35.4 °F 48% 30.21 in 10.0 mi NW 5.8 mph - N/A   Clear
12:15 PM 55.6 °F - 35.1 °F 46% 30.20 in 10.0 mi West 10.4 mph - N/A   Clear
12:35 PM 56.3 °F - 35.2 °F 45% 30.19 in 10.0 mi NNW 8.1 mph - N/A   Clear
12:55 PM 56.7 °F - 35.4 °F 45% 30.18 in 10.0 mi WNW 8.1 mph - N/A   Clear
1:15 PM 58.1 °F - 36.0 °F 44% 30.18 in 10.0 mi WNW 5.8 mph 9.2 mph N/A   Clear
1:35 PM 58.1 °F - 35.8 °F 43% 30.18 in 10.0 mi West 4.6 mph - N/A   Clear
1:55 PM 59.0 °F - 36.7 °F 43% 30.18 in 10.0 mi West 5.8 mph - N/A   Clear
2:15 PM 59.2 °F - 36.5 °F 43% 30.18 in 10.0 mi West 4.6 mph - N/A   Clear
2:35 PM 59.5 °F - 36.7 °F 43% 30.17 in 10.0 mi WNW 4.6 mph - N/A   Clear
2:55 PM 59.4 °F - 35.8 °F 41% 30.17 in 10.0 mi West 4.6 mph - N/A   Clear
3:15 PM 59.9 °F - 36.1 °F 41% 30.17 in 10.0 mi Calm Calm - N/A   Clear
3:35 PM 59.4 °F - 36.1 °F 42% 30.17 in 10.0 mi WNW 4.6 mph - N/A   Clear
3:55 PM 59.0 °F - 35.1 °F 41% 30.18 in 10.0 mi West 5.8 mph - N/A   Clear
4:15 PM 58.1 °F - 35.1 °F 42% 30.18 in 10.0 mi Calm Calm - N/A   Clear
4:35 PM 57.2 °F - 35.1 °F 43% 30.18 in 10.0 mi Calm Calm - N/A   Clear
4:55 PM 52.3 °F - 37.0 °F 56% 30.18 in 10.0 mi Calm Calm - N/A   Clear
5:15 PM 50.0 °F - 37.8 °F 63% 30.18 in 10.0 mi Calm Calm - N/A   Clear
5:35 PM 47.3 °F - 36.9 °F 67% 30.19 in 10.0 mi Calm Calm - N/A   Clear
5:55 PM 46.2 °F - 36.9 °F 70% 30.20 in 10.0 mi Calm Calm - N/A   Clear
6:15 PM 44.6 °F - 37.2 °F 75% 30.20 in 10.0 mi Calm Calm - N/A   Clear
6:35 PM 42.8 °F - 37.4 °F 81% 30.21 in 10.0 mi Calm Calm - N/A   Clear
6:55 PM 41.9 °F - 37.4 °F 84% 30.21 in 10.0 mi Calm Calm - N/A   Clear
7:15 PM 41.0 °F - 36.5 °F 84% 30.22 in 10.0 mi Calm Calm - N/A   Clear
7:35 PM 40.1 °F - 37.4 °F 90% 30.22 in 10.0 mi Calm Calm - N/A   Clear
7:55 PM 39.7 °F - 37.6 °F 92% 30.23 in 10.0 mi Calm Calm - N/A   Clear
8:15 PM 39.4 °F - 37.2 °F 92% 30.23 in 10.0 mi Calm Calm - N/A   Clear
8:55 PM 37.2 °F - 37.0 °F 99% 30.23 in 10.0 mi Calm Calm - N/A   Clear
9:15 PM 37.8 °F - 37.8 °F 100% 30.24 in 10.0 mi Calm Calm - N/A   Clear
9:35 PM 36.7 °F - 36.7 °F 100% 30.24 in 10.0 mi Calm Calm - N/A   Clear
9:55 PM 36.5 °F - 36.5 °F 100% 30.24 in 10.0 mi Calm Calm - N/A   Clear
10:15 PM 36.5 °F - 36.5 °F 100% 30.24 in 10.0 mi Calm Calm - N/A   Clear
10:35 PM 36.7 °F - 36.7 °F 100% 30.24 in 10.0 mi Calm Calm - N/A   Clear
10:55 PM 37.4 °F - 37.4 °F 100% 30.24 in 10.0 mi Calm Calm - N/A   Clear
11:15 PM 36.9 °F - 36.7 °F 99% 30.24 in 10.0 mi Calm Calm - N/A   Clear
11:35 PM 35.8 °F - 35.8 °F 100% 30.24 in 10.0 mi Calm Calm - N/A   Clear
11:55 PM 35.6 °F - 35.6 °F 100% 30.24 in 10.0 mi Calm Calm - N/A   Clear